Location: Minneapolis
(45.0000°N, 93.0000°W)
Time: 00:20:34
(UTC-05:00)

Envisat - Pass Details

Date: 13 March 2018
Orbit: 764 x 766 km, 98.2° (Epoch: 21 June)

Event Time Altitude Azimuth Distance (km) Brightness Sun altitude
Rises 21:31:24 0° 196° (SSW) 3,214 6.2 -24.3°
Reaches altitude 10° 21:34:02 10° 209° (SSW) 2,293 5.5 -24.7°
Maximum altitude 21:38:16 27° 266° (W) 1,446 5.0 -25.4°
Drops below altitude 10° 21:42:33 10° 324° (NW) 2,308 6.3 -26.1°
Sets 21:45:13 0° 336° (NNW) 3,240 6.9 -26.5°
